Location: Unspecified
(0.0000°N, 0.0000°E)
Time: 20:19:12
(UTC+00:00)

CZ-3C DEB - Pass Details

Date: 07 March 2026
Orbit: 544 x 34777 km, 21.8° (Epoch: 16 April)

Event Time Altitude Azimuth Distance (km) Brightness Sun altitude
Exits shadow 04:54:50 39° 308° (NW) 878 ? -19.0°
Maximum altitude 04:56:01 74° 24° (NNE) 676 ? -18.7°
Drops below altitude 10° 05:02:29 10° 110° (ESE) 3,576 ? -17.1°
Sets 05:08:17 0° 111° (ESE) 6,350 ? -15.6°
